Location: Unspecified
(0.0000°N, 0.0000°E)
Time: 11:04:16
(UTC+00:00)

Vanguard 3 - Pass Details

Date: 28 September 2023
Orbit: 507 x 3241 km, 33.3° (Epoch: 06 December)

Event Time Altitude Azimuth Distance (km) Brightness Sun altitude
Rises 06:21:41 0° 240° (WSW) 3,824 10.1 7.7°
Reaches altitude 10° 06:26:49 10° 207° (SSW) 3,468 10.2 9.0°
Maximum altitude 06:29:33 12° 189° (S) 3,661 10.5 9.7°
Drops below altitude 10° 06:32:42 10° 171° (S) 4,136 10.9 10.5°
Sets 06:41:07 0° 143° (SE) 5,978 12.2 12.6°
